Location: Baia Mare
(47.6567°N, 23.5850°E)
Time: 19:34:56
(UTC+03:00)

Envisat - Pass Details

Date: 28 January 2022
Orbit: 764 x 765 km, 98.2° (Epoch: 19 May)

Event Time Altitude Azimuth Distance (km) Brightness Sun altitude
Rises 18:00:53 0° 221° (SW) 3,219 7.4 -7.1°
Reaches altitude 10° 18:04:51 10° 253° (WSW) 2,300 7.3 -7.8°
Maximum altitude 18:06:41 12° 274° (W) 2,175 6.6 -8.1°
Drops below altitude 10° 18:08:32 10° 296° (WNW) 2,306 6.2 -8.4°
Sets 18:12:32 0° 327° (NNW) 3,240 6.5 -9.0°
